Terminal Aerodrome Forecast
Issued by NWS Boise, ID

Home | Current Version | Previous Version | Text Only | Print | Product List | Glossary On
Versions: 1 2 3 4 5 6 7 8 9 10 11 12 13 14 15 16 17 18 19
000
FTUS45 KBOI 140537
TAFBNO
TAF
KBNO 140537Z 1406/1506 VRB03KT 5SM BR SCT006 SCT250
     FM141000 VRB03KT 3/4SM BR BKN005
     FM141800 VRB03KT P6SM BKN015=

USA.gov is the U.S. government's official web portal to all federal, state and local government web resources and services.